CAPE
173 156 195 208 169 96 10 0 0 0 0 0 0 0 0 0 0 0 0 0 0 0
129 183 175 184 205 119 62 0 0 0 0 0 0 0 0 0 0 0 0 0 0 0
59 66 38 32 58 42 15 0 0 0 0 0 0 0 0 0 0 0 0 0 0 0
3 0 1 0 0 0 0 0 0 0 0 0 0 0 0 0 0 0 0 0 0 0
0 0 3 1 0 0 0 0 0 0 0 0 0 0 0 0 0 0 0 0 0 0
0 0 0 0 0 0 0 0 0 0 0 0 0 0 0 0 0 0 0 0 0 0
0 0 0 0 0 0 0 0 0 0 0 0 0 0 0 0 0 0 0 0 0 0
0 0 0 0 0 0 0 0 0 0 0 0 0 0 0 0 0 0 0 0 0 0
0 0 0 0 0 0 0 0 0 0 0 0 0 0 0 0 0 0 0 0 0 0
0 0 0 0 0 0 0 0 0 0 0 0 0 0 0 0 0 0 0 0 0 0
0 0 0 0 0 0 0 0 0 0 0 0 0 0 0 0 0 0 0 0 0 0
0 0 0 0 0 0 0 0 0 0 0 0 0 0 0 0 0 0 0 0 0 0
0 0 0 0 0 0 0 0 0 0 0 0 0 0 0 0 0 0 0 0 0 0
0 0 0 0 0 0 0 0 0 0 0 0 0 0 0 0 0 0 0 0 0 0
CIN
-87 -67 -35 -18 -19 -52 -82 -0 -0 -0 -0 -0 -0 -0 -0 -0 -0 -0 -0 -0 -0 -0
-112 -98 -104 -81 -19 -65 -116 -0 -0 -0 -0 -0 -0 -0 -0 -0 -0 -0 -0 -0 -0 -0
-237 -210 -221 -196 -173 -169 -165 -0 -0 -0 -0 -0 -0 -0 -0 -0 -0 -0 -0 -0 -0 -0
-419 -97 -1 -0 -3 -0 -0 -0 -0 -0 -0 -0 -0 -0 -0 -0 -0 -0 -0 -0 -0 -0
-0 -0 -6 -5 -0 -0 -0 -0 -0 -0 -0 -0 -0 -0 -0 -0 -0 -0 -0 -0 -0 -0
-0 -0 -0 -0 -0 -0 -0 -0 -0 -0 -0 -0 -0 -0 -0 -0 -0 -0 -0 -0 -0 -0
-0 -0 -0 -0 -0 -0 -0 -0 -0 -0 -0 -0 -0 -0 -0 -0 -0 -0 -0 -0 -0 -0
-0 -0 -0 -0 -0 -0 -0 -0 -0 -0 -0 -0 -0 -0 -0 -0 -0 -0 -0 -0 -0 -0
-0 -0 -0 -0 -0 -0 -0 -0 -0 -0 -0 -0 -0 -0 -0 -0 -0 -0 -0 -0 -0 -0
-0 -0 -0 -0 -0 -0 -0 -0 -0 -0 -0 -0 -0 -0 -0 -0 -0 -0 -0 -0 -0 -0
-0 -0 -0 -0 -0 -0 -0 -0 -0 -0 -0 -0 -0 -0 -0 -0 -0 -0 -0 -0 -0 -0
-0 -0 -0 -0 -0 -0 -0 -0 -0 -0 -0 -0 -0 -0 -0 -0 -0 -0 -0 -0 -0 -0
-0 -0 -0 -0 -0 -0 -0 -0 -0 -0 -0 -0 -0 -0 -0 -0 -0 -0 -0 -0 -0 -0
-0 -0 -0 -0 -0 -0 -0 -0 -0 -0 -0 -0 -0 -0 -0 -0 -0 -0 -0 -0 -0 -0
Wind_Speed
18 12 12 13 10 10 9 10 12 10 9 9 9 8 7 5 4 5 5 7 5 5
15 16 13 15 13 10 11 9 10 11 10 9 9 10 10 6 6 6 6 7 7 6
16 15 14 14 13 10 9 9 10 10 10 11 9 9 11 8 9 8 6 5 7 6
12 13 12 11 10 7 7 10 10 11 11 12 12 11 9 9 10 11 9 7 8 7
9 9 9 9 7 7 9 8 10 11 10 12 11 11 11 12 11 12 11 10 9 9
9 9 9 8 8 8 8 9 8 10 11 12 12 11 10 10 12 11 11 10 9 10
7 8 8 8 7 8 9 11 11 11 11 12 12 11 10 12 11 10 9 9 8 10
5 5 5 7 8 8 9 9 10 10 7 9 9 9 12 12 12 12 10 7 7 8
5 4 4 5 6 6 6 8 9 11 11 13 8 15 18 15 12 11 11 11 8 8
6 6 5 5 6 7 9 9 10 10 12 11 9 19 19 17 10 11 10 10 10 8
5 5 7 6 6 7 8 11 11 11 11 11 9 21 18 15 10 8 9 10 10 10
6 5 6 7 8 6 6 6 7 7 8 9 8 19 19 14 9 9 9 9 10 10
6 7 8 7 7 5 5 3 3 3 4 5 9 17 20 14 7 8 7 6 5 9
4 4 5 5 3 6 6 6 6 7 5 5 8 13 21 19 8 8 8 8 8 7
Wind_Direction
215 218 216 215 208 212 207 207 193 188 184 157 153 145 137 142 137 150 144 134 127 123
218 216 215 217 214 209 207 204 181 177 162 153 148 152 143 139 146 143 136 128 129 123
212 213 217 220 219 215 199 155 172 172 160 150 151 156 150 148 155 140 132 134 132 128
209 207 218 220 218 189 151 162 180 180 162 162 158 161 158 150 150 139 141 150 146 147
206 192 207 212 187 163 167 170 176 165 162 160 161 164 162 160 156 149 153 157 151 157
203 208 187 184 180 171 163 164 164 167 164 172 163 165 160 159 153 156 157 160 161 156
206 210 199 197 171 168 167 167 174 176 171 166 167 162 159 156 151 154 155 157 161 161
206 200 171 161 165 159 170 171 167 156 145 143 167 159 167 158 154 153 147 150 147 158
183 185 173 149 145 146 147 152 156 166 165 169 165 167 176 155 152 152 153 154 156 158
166 168 166 159 157 164 168 161 173 174 172 177 158 170 169 153 152 153 157 157 157 155
170 178 163 165 189 185 180 178 180 183 187 175 169 169 161 144 145 146 157 163 166 163
185 175 176 185 184 182 179 182 185 175 172 168 156 166 159 145 146 154 158 165 169 169
187 177 185 190 181 168 166 170 123 135 146 150 151 170 169 156 154 156 156 151 155 169
183 184 175 159 145 157 155 143 150 156 146 148 160 180 180 174 164 164 165 175 178 189